EW6674 Weather Reports


Display with metric or nautical units.
time (UTC)temp
F
wind
direction
speed
MPH
gust
MPH
rain 1hr
in
rain 24hr
in
rain mn
in
humidity
%
barometer
mb
20260502213016 59 109 2.0 6.0 0.00 0.00 0.00 67 1018.5
20260502211517 60 109 4.0 7.0 0.00 0.00 0.00 66 1018.5
20260502210015 60 92 2.0 8.0 0.00 0.00 0.00 65 1018.5
20260502204514 61 103 1.0 7.0 0.00 0.00 0.00 64 1018.7
20260502203013 61 45 4.0 9.0 0.00 0.00 0.00 62 1018.7
20260502201513 61 40 4.0 7.0 0.00 0.00 0.00 61 1018.6
20260502200013 62 74 3.0 8.0 0.00 0.00 0.00 60 1018.6
20260502194512 63 197 1.0 2.0 0.00 0.00 0.00 59 1018.4
20260502193011 63 197 1.0 2.0 0.00 0.00 0.00 58 1018.3
20260502191510 64 197 0.0 0.0 0.00 0.00 0.00 55 1018.2
20260502190013 65 197 0.0 2.0 0.00 0.00 0.00 53 1018.1
20260502184524 66 197 1.0 4.0 0.00 0.00 0.00 52 1018.1
20260502183024 67 197 1.0 5.0 0.00 0.00 0.00 50 1017.9
20260502181509 68 197 1.0 6.0 0.00 0.00 0.00 48 1017.8
20260502163007 77 215 2.0 7.0 0.00 0.00 0.00 34 1017.7
20260502161505 78 234 5.0 10.0 0.00 0.00 0.00 33 1017.7
20260502151606 78 209 8.0 14.0 0.00 0.00 0.00 33 1018.3
20260502123036 78 220 5.0 10.0 0.00 0.00 0.00 32 1020.3
20260502121536 77 259 6.0 14.0 0.00 0.00 0.00 31 1020.5
20260502114522 76 277 4.0 15.0 0.00 0.00 0.00 33 1020.8
20260502113018 76 284 3.0 12.0 0.00 0.00 0.00 34 1021.0
20260502111520 75 259 2.0 12.0 0.00 0.00 0.00 34 1021.2
20260502110017 75 215 4.0 10.0 0.00 0.00 0.00 35 1021.4
20260502104510 74 239 4.0 10.0 0.00 0.00 0.00 33 1021.7
20260502103007 74 270 5.0 10.0 0.00 0.00 0.00 34 1021.8
20260502101505 74 255 4.0 9.0 0.00 0.00 0.00 36 1022.0
20260502071517 63 60 2.0 4.0 0.00 0.00 0.00 51 1023.3
20260502070013 61 36 3.0 6.0 0.00 0.00 0.00 53 1023.5
20260502064508 60 36 3.0 5.0 0.00 0.00 0.00 55 1023.6
20260502063010 58 36 2.0 4.0 0.00 0.00 0.00 58 1023.6
20260502061600 57 36 3.0 5.0 0.00 0.00 0.00 59 1023.7
20260502060055 56 46 3.0 5.0 0.00 0.00 0.00 60 1023.8
20260502054552 55 72 2.0 4.0 0.00 0.00 0.00 63 1023.8
20260502053054 53 72 1.0 3.0 0.00 0.00 0.00 66 1023.9
20260502051550 52 72 1.0 4.0 0.00 0.00 0.00 67 1023.8
20260502050040 51 66 1.0 4.0 0.00 0.00 0.00 70 1023.8
20260502044538 49 355 0.0 2.0 0.00 0.00 0.00 73 1023.7
20260502043030 49 355 1.0 2.0 0.00 0.00 0.00 72 1023.7
20260502041537 49 355 0.0 1.0 0.00 0.00 0.00 71 1023.6
20260502040025 49 355 1.0 3.0 0.00 0.00 0.00 71 1023.6
20260502034524 49 355 1.0 4.0 0.00 0.00 0.00 70 1023.6
20260502033026 49 355 1.0 3.0 0.00 0.00 0.00 70 1023.6
20260502031521 50 355 1.0 3.0 0.00 0.00 0.00 69 1023.6
20260502030022 50 355 1.0 4.0 0.00 0.00 0.00 69 1023.6
20260502024520 50 355 2.0 6.0 0.00 0.00 0.00 68 1023.6
20260502023018 50 13 3.0 7.0 0.00 0.00 0.00 69 1023.6
20260502021518 50 11 3.0 6.0 0.00 0.00 0.00 68 1023.7
20260502020012 50 15 1.0 4.0 0.00 0.00 0.00 68 1023.8
20260502014522 51 17 3.0 5.0 0.00 0.00 0.00 67 1023.9
20260502013008 51 24 2.0 4.0 0.00 0.00 0.00 66 1023.8
20260502011508 51 25 3.0 5.0 0.00 0.00 0.00 67 1023.9
20260502010005 51 24 4.0 8.0 0.00 0.00 0.00 69 1023.9
20260502004609 51 46 2.0 5.0 0.00 0.00 0.00 72 1024.0
20260502003001 52 80 1.0 3.0 0.00 0.00 0.00 72 1024.0
20260502001603 52 80 0.0 3.0 0.00 0.00 0.00 72 1024.1
20260502000100 52 80 2.0 5.0 0.00 0.00 0.00 72 1024.1
20260501234558 52 88 2.0 6.0 0.00 0.00 0.00 71 1024.2
20260501233107 53 90 2.0 6.0 0.00 0.00 0.00 70 1024.1
20260501231610 53 93 3.0 6.0 0.00 0.00 0.00 66 1024.1
20260501230051 54 97 2.0 4.0 0.00 0.00 0.00 63 1024.1
20260501224548 55 99 1.0 4.0 0.00 0.00 0.00 60 1024.1
20260501223109 56 94 2.0 6.0 0.00 0.00 0.00 55 1024.0
20260501221542 56 95 2.0 6.0 0.00 0.00 0.00 51 1023.9
20260501220039 57 103 2.0 7.0 0.00 0.00 0.00 50 1023.8
20260501214539 57 98 2.0 4.0 0.00 0.00 0.00 48 1023.7